DW9936 Weather Reports


time (UTC)temp
F
wind
direction
speed
knots
gust
knots
rain 1hr
in
rain 24hr
in
rain mn
in
humidity
%
barometer
mb
20260905151522 77 136 0.0 12.2 0.00 0.00 0.00 48 1019.0
20260905150021 77 14 0.0 3.5 0.00 0.00 0.00 48 1018.9
20260905144534 78 350 0.0 8.7 0.00 0.00 0.00 48 1018.8
20260905143021 78 337 0.0 5.2 0.00 0.00 0.00 49 1018.8
20260905141524 79 344 0.9 8.7 0.00 0.00 0.00 48 1018.9
20260905140026 79 307 0.9 8.7 0.00 0.00 0.00 47 1018.9
20260905134519 78 96 0.9 8.7 0.00 0.00 0.00 50 1019.0
20260905133017 78 180 0.9 7.0 0.00 0.00 0.00 50 1019.1
20260905131517 77 30 0.9 5.2 0.00 0.00 0.00 53 1019.1
20260905130019 76 311 0.9 7.8 0.00 0.00 0.00 55 1019.4
20260905124528 76 29 0.9 5.2 0.00 0.00 0.00 54 1019.4
20260905123015 76 196 0.0 3.5 0.00 0.00 0.00 56 1019.5
20260905121518 76 333 0.0 5.2 0.00 0.00 0.00 56 1019.5
20260905120014 76 144 0.9 9.6 0.00 0.00 0.00 54 1019.6
20260905114513 74 119 0.9 5.2 0.00 0.00 0.00 58 1019.5
20260905113013 74 76 0.9 7.0 0.00 0.00 0.00 57 1019.5
20260905111511 74 340 0.9 9.6 0.00 0.00 0.00 60 1019.6
20260905110010 72 184 0.9 8.7 0.00 0.00 0.00 65 1019.5
20260905104515 71 146 0.9 5.2 0.00 0.00 0.00 70 1019.5
20260905103007 69 324 0.9 5.2 0.00 0.00 0.00 75 1019.6
20260905101507 67 5 0.0 5.2 0.00 0.00 0.00 79 1019.8
20260905100006 65 160 0.0 5.2 0.00 0.00 0.00 83 1020.1
20260905094505 64 192 0.0 8.7 0.00 0.00 0.00 85 1020.1
20260905093004 63 215 0.0 2.6 0.00 0.00 0.00 90 1020.1
20260905091504 62 239 0.0 2.6 0.00 0.00 0.00 90 1020.3
20260905090002 62 171 0.0 5.2 0.00 0.00 0.00 91 1020.4
20260905084559 61 258 0.0 7.0 0.00 0.00 0.00 91 1020.1
20260905083053 60 181 0.0 5.2 0.00 0.00 0.00 91 1020.1
20260905081600 60 237 0.0 0.9 0.00 0.00 0.00 91 1020.1
20260905080057 60 200 0.0 4.3 0.00 0.00 0.00 91 1020.3
20260905074549 60 238 0.0 1.7 0.00 0.00 0.00 91 1020.4
20260905073048 60 218 0.0 1.7 0.00 0.00 0.00 90 1020.5
20260905071554 60 234 0.0 2.6 0.00 0.00 0.00 90 1020.3
20260905070048 60 240 0.0 0.9 0.00 0.00 0.00 89 1020.9
20260905064548 60 229 0.0 0.0 0.00 0.00 0.00 89 1019.8
20260905063040 60 229 0.0 0.0 0.00 0.00 0.00 88 1019.2
20260905061553 61 229 0.0 0.9 0.00 0.00 0.00 86 1019.8
20260905060033 62 269 0.0 1.7 0.00 0.00 0.00 83 1019.4
20260905054531 62 355 0.0 1.7 0.00 0.00 0.00 81 1019.0
20260905053027 63 355 0.0 0.0 0.00 0.00 0.00 81 1019.1
20260905051532 65 355 0.0 3.5 0.00 0.00 0.00 73 1018.7
20260905050022 68 28 0.0 3.5 0.00 0.00 0.00 63 1018.3
20260905044523 69 341 0.9 4.3 0.00 0.00 0.00 56 1017.6
20260905043016 69 320 0.0 4.3 0.00 0.00 0.00 57 1017.0
20260905041515 70 336 0.0 2.6 0.00 0.00 0.00 57 1017.0
20260905040018 70 319 0.9 5.2 0.00 0.00 0.00 55 1016.8
20260905034513 71 349 0.9 4.3 0.00 0.00 0.00 56 1016.3
20260905033009 71 355 0.9 7.0 0.00 0.00 0.00 58 1015.9
20260905031506 71 341 1.7 7.0 0.00 0.00 0.00 59 1015.7
20260905030005 72 340 2.6 8.7 0.00 0.00 0.00 57 1015.2
20260905024502 75 350 0.9 4.3 0.00 0.00 0.00 56 1014.4
20260905023104 78 355 0.0 1.7 0.00 0.00 0.00 52 1013.3
20260905021556 79 355 0.0 2.6 0.00 0.00 0.00 51 1012.8
20260905020055 80 309 0.0 1.7 0.00 0.00 0.00 50 1012.8
20260905014554 80 355 0.0 2.6 0.00 0.00 0.00 51 1012.7
20260905013057 78 342 0.9 7.8 0.00 0.00 0.00 54 1012.6
20260905011545 74 333 0.0 5.2 0.00 0.00 0.00 62 1012.6
20260905010046 68 323 0.0 2.6 0.00 0.00 0.00 71 1012.6
20260905004539 67 278 0.0 0.0 0.00 0.00 0.00 71 1012.5
20260905003038 67 278 0.0 0.0 0.00 0.00 0.00 71 1012.4
20260905001538 67 278 0.0 0.0 0.00 0.00 0.00 70 1012.3
20260905000038 67 278 0.0 0.0 0.00 0.00 0.00 70 1012.4
20260904234543 66 278 0.0 0.0 0.00 0.00 0.00 70 1012.3
20260904233036 66 278 0.0 0.0 0.00 0.00 0.00 71 1012.3
20260904231533 66 278 0.0 0.0 0.00 0.00 0.00 69 1012.2
20260904230030 66 278 0.0 0.0 0.00 0.00 0.00 69 1012.1
20260904224538 67 278 0.0 0.9 0.00 0.00 0.00 69 1012.1
20260904223027 67 278 0.0 0.0 0.00 0.00 0.00 68 1011.9
20260904221527 67 278 0.0 0.0 0.00 0.00 0.00 68 1011.9
20260904220030 67 278 0.0 0.0 0.00 0.00 0.00 66 1011.9
20260904214533 68 278 0.0 0.0 0.00 0.00 0.00 65 1011.9
20260904213022 69 278 0.0 0.0 0.00 0.00 0.00 63 1012.0
20260904211526 69 278 0.0 0.0 0.00 0.00 0.00 62 1012.0
20260904210024 70 278 0.0 0.0 0.00 0.00 0.00 60 1012.0
20260904204520 71 278 0.0 0.0 0.00 0.00 0.00 59 1012.0
20260904203031 71 279 0.0 0.0 0.00 0.00 0.00 57 1011.9
20260904201519 72 279 0.0 0.0 0.00 0.00 0.00 56 1011.9
20260904200019 73 274 0.0 0.0 0.00 0.00 0.00 55 1011.9
20260904194523 73 274 0.0 0.0 0.00 0.00 0.00 54 1011.8
20260904193018 74 274 0.0 0.0 0.00 0.00 0.00 52 1011.9
20260904191518 75 274 0.0 0.0 0.00 0.00 0.00 51 1011.9
20260904190017 75 273 0.0 0.9 0.00 0.00 0.00 49 1011.7
20260904184525 76 254 0.0 0.9 0.00 0.00 0.00 49 1011.5
20260904183017 77 254 0.0 0.0 0.00 0.00 0.00 48 1011.4
20260904181516 79 254 0.0 0.0 0.00 0.00 0.00 46 1011.1
20260904180016 81 254 0.0 0.0 0.00 0.00 0.00 43 1010.9
20260904174516 82 254 0.0 0.0 0.00 0.00 0.00 41 1010.9
20260904173029 84 254 0.0 0.0 0.00 0.00 0.00 38 1010.9
20260904171516 86 254 0.0 0.9 0.00 0.00 0.00 36 1010.9
20260904170015 87 250 0.0 1.7 0.00 0.00 0.00 33 1011.0
20260904164514 88 152 0.0 2.6 0.00 0.00 0.00 33 1011.1
20260904163010 88 321 0.0 5.2 0.00 0.00 0.00 33 1011.4
20260904161508 89 184 0.0 3.5 0.00 0.00 0.00 33 1011.6
20260904160007 89 211 0.9 7.0 0.00 0.00 0.00 32 1011.8
20260904154505 89 107 0.0 4.3 0.00 0.00 0.00 33 1011.9
20260904153004 89 215 0.9 3.5 0.00 0.00 0.00 33 1012.2